DW8522 Weather Reports


Display with metric or nautical units.
time (UTC)temp
F
wind
direction
speed
MPH
gust
MPH
rain 1hr
in
rain 24hr
in
rain mn
in
humidity
%
barometer
mb
20260902181557 53 195 0.0 2.0 0.00 0.00 0.00 83 1019.2
20260902180057 52 176 0.0 2.0 0.00 0.00 0.00 83 1019.3
20260902174555 53 181 0.0 3.0 0.00 0.00 0.00 82 1019.2
20260902173055 52 139 0.0 2.0 0.00 0.00 0.00 83 1019.2
20260902171605 52 180 0.0 6.0 0.00 0.00 0.00 84 1019.2
20260902170053 52 134 0.0 1.0 0.00 0.00 0.00 84 1019.0
20260902164551 52 131 0.0 1.0 0.00 0.00 0.00 85 1019.2
20260902163053 52 131 0.0 1.0 0.00 0.00 0.00 86 1019.0
20260902161550 53 131 0.0 1.0 0.00 0.00 0.00 86 1019.2
20260902160104 53 157 0.0 1.0 0.00 0.00 0.00 85 1019.1
20260902154555 54 156 0.0 4.0 0.00 0.00 0.00 85 1019.0
20260902153047 54 347 0.0 3.0 0.00 0.00 0.00 85 1018.8
20260902151543 54 279 0.0 3.0 0.00 0.00 0.00 85 1019.1
20260902150042 53 287 2.0 5.0 0.00 0.00 0.00 87 1019.3
20260902144541 54 146 0.0 1.0 0.00 0.00 0.00 85 1019.4
20260902143044 54 116 0.0 1.0 0.00 0.00 0.00 84 1019.5
20260902141537 54 178 0.0 4.0 0.00 0.00 0.00 83 1019.5
20260902140038 55 153 1.0 4.0 0.00 0.00 0.00 82 1019.7
20260902134539 55 166 1.0 5.0 0.00 0.00 0.00 81 1019.4
20260902133043 55 176 1.0 5.0 0.00 0.00 0.00 82 1019.5
20260902131535 55 251 3.0 6.0 0.00 0.00 0.00 83 1019.4
20260902130031 55 130 0.0 4.0 0.00 0.00 0.00 84 1019.5
20260902124529 55 240 2.0 7.0 0.00 0.00 0.00 83 1019.5
20260902123030 55 178 1.0 8.0 0.00 0.00 0.00 83 1019.4
20260902121527 55 186 2.0 6.0 0.00 0.00 0.00 83 1019.3
20260902120033 55 176 1.0 6.0 0.00 0.00 0.00 83 1019.1
20260902114523 55 174 0.0 5.0 0.00 0.00 0.00 84 1019.2
20260902113024 55 191 1.0 7.0 0.00 0.00 0.00 84 1019.0
20260902111538 55 195 1.0 4.0 0.00 0.00 0.00 84 1018.9
20260902110048 56 228 2.0 6.0 0.00 0.00 0.00 84 1019.1
20260902104527 56 293 2.0 5.0 0.00 0.00 0.00 84 1019.1
20260902103020 56 237 2.0 6.0 0.00 0.00 0.00 83 1018.9
20260902101521 56 200 1.0 9.0 0.00 0.00 0.00 83 1018.8
20260902100020 56 205 2.0 6.0 0.00 0.00 0.00 83 1018.8
20260902094521 56 197 1.0 6.0 0.00 0.00 0.00 83 1018.9
20260902093018 56 226 1.0 8.0 0.00 0.00 0.00 83 1018.8
20260902091519 56 200 2.0 7.0 0.00 0.00 0.00 83 1018.9
20260902090018 56 211 2.0 10.0 0.00 0.00 0.00 84 1018.8
20260902084516 56 188 2.0 8.0 0.00 0.00 0.00 85 1018.9
20260902083017 56 229 3.0 8.0 0.00 0.00 0.00 83 1018.7
20260902081516 57 216 2.0 7.0 0.00 0.00 0.00 79 1018.6
20260902080016 57 267 1.0 4.0 0.00 0.00 0.00 79 1018.5
20260902074515 58 205 1.0 6.0 0.00 0.00 0.00 79 1018.5
20260902073014 58 231 2.0 7.0 0.00 0.00 0.00 78 1018.6
20260902071514 58 287 5.0 11.0 0.00 0.00 0.00 77 1018.4
20260902070013 58 210 3.0 9.0 0.00 0.00 0.00 76 1018.1
20260902064613 58 350 3.0 11.0 0.00 0.00 0.00 75 1018.1
20260902063024 58 224 3.0 8.0 0.00 0.00 0.00 75 1018.0
20260902061512 59 200 1.0 8.0 0.00 0.00 0.00 74 1018.2
20260902060010 59 217 2.0 4.0 0.00 0.00 0.00 75 1017.9
20260902054518 60 212 1.0 5.0 0.00 0.00 0.00 74 1017.9
20260902053017 60 200 2.0 11.0 0.00 0.00 0.00 72 1017.8
20260902051508 61 266 3.0 5.0 0.00 0.00 0.00 70 1017.9
20260902050009 62 170 1.0 6.0 0.00 0.00 0.00 68 1017.7
20260902044506 63 184 3.0 9.0 0.00 0.00 0.00 68 1017.4
20260902043005 63 213 3.0 8.0 0.00 0.00 0.00 69 1017.3
20260902041505 62 255 3.0 12.0 0.00 0.00 0.00 71 1017.4
20260902040005 62 231 3.0 10.0 0.00 0.00 0.00 70 1017.5
20260902034503 62 311 3.0 11.0 0.00 0.00 0.00 70 1017.4
20260902033003 62 277 4.0 7.0 0.00 0.00 0.00 71 1017.6
20260902031503 62 251 5.0 14.0 0.00 0.00 0.00 69 1017.6
20260902030002 62 259 3.0 8.0 0.00 0.00 0.00 72 1017.6
20260902024601 62 253 4.0 17.0 0.00 0.00 0.00 71 1017.6
20260902023102 62 226 4.0 11.0 0.00 0.00 0.00 68 1017.5
20260902021608 63 173 6.0 13.0 0.00 0.00 0.00 67 1017.7
20260902020104 63 240 6.0 12.0 0.00 0.00 0.00 67 1017.7
20260902014559 63 222 2.0 12.0 0.00 0.00 0.00 69 1017.7
20260902013156 63 204 3.0 9.0 0.00 0.00 0.00 70 1017.9
20260902011554 63 263 2.0 10.0 0.00 0.00 0.00 69 1018.0
20260902010054 63 317 4.0 13.0 0.00 0.00 0.00 70 1018.2
20260902004551 62 183 1.0 5.0 0.00 0.00 0.00 73 1018.5
20260902003051 62 150 1.0 3.0 0.00 0.00 0.00 74 1018.3
20260902001550 62 181 1.0 12.0 0.00 0.00 0.00 73 1018.6
20260902000052 61 207 3.0 12.0 0.00 0.00 0.00 74 1018.6
20260901234553 60 328 3.0 7.0 0.00 0.00 0.00 76 1019.0
20260901233041 60 285 3.0 10.0 0.00 0.00 0.00 76 1019.0
20260901231537 59 167 2.0 8.0 0.00 0.00 0.00 78 1019.0
20260901230042 59 174 2.0 4.0 0.00 0.00 0.00 77 1019.2
20260901224533 58 170 2.0 6.0 0.00 0.00 0.00 78 1019.3
20260901223031 58 188 1.0 6.0 0.00 0.00 0.00 79 1019.4
20260901221540 57 194 3.0 12.0 0.00 0.00 0.00 79 1019.5
20260901220030 57 138 2.0 6.0 0.00 0.00 0.00 79 1019.5
20260901214529 57 138 2.0 10.0 0.00 0.00 0.00 79 1019.4
20260901213053 57 262 3.0 10.0 0.00 0.00 0.00 78 1019.5
20260901211537 57 197 4.0 12.0 0.00 0.00 0.00 80 1019.4
20260901210031 56 335 4.0 12.0 0.00 0.00 0.00 81 1019.4
20260901204520 56 258 4.0 10.0 0.00 0.00 0.00 83 1019.3
20260901203031 55 248 5.0 12.0 0.00 0.00 0.00 83 1019.4
20260901201518 55 207 4.0 12.0 0.00 0.00 0.00 83 1019.2
20260901200034 54 210 2.0 7.0 0.00 0.00 0.00 82 1019.0
20260901194510 54 194 2.0 8.0 0.00 0.00 0.00 83 1018.9
20260901193009 53 242 2.0 5.0 0.00 0.00 0.00 83 1018.6
20260901191508 53 171 1.0 7.0 0.00 0.00 0.00 83 1018.5
20260901190007 52 219 2.0 7.0 0.00 0.00 0.00 83 1018.4
20260901184505 52 204 1.0 4.0 0.00 0.00 0.00 83 1018.2
20260901183006 52 155 0.0 4.0 0.00 0.00 0.00 82 1018.2